Weather Roundup
Issued by NWS Chicago, IL

Home | Current Version | Previous Version | Text Only | Print | Product List | Glossary On
Versions: 1 2 3 4 5 6 7 8 9 10 11 12 13 14 15 16 17 18 19 20 21 22 23 24 25 26 27 28 29 30 31 32 33 34 35 36 37 38 39 40 41 42 43 44 45 46 47 48 49 50
000
NZUS59 KLOT 281006
HRRLOT

CHICAGO AREA WEATHER ROUNDUP
NATIONAL WEATHER SERVICE CHICAGO/ROMEOVILLE IL
400 AM CST WED JAN 28 2015

NOTE: "FAIR" INDICATES FEW OR NO CLOUDS BELOW 12,000 FEET WITH NO
SIGNIFICANT WEATHER AND/OR OBSTRUCTIONS TO VISIBILITY.

* THESE STATIONS ARE NOT UNDER NWS QUALITY CONTROL. THEY ALSO MAY NOT
  REPORT WEATHER SUCH AS PRECIPITATION OR FOG.

ILZ005-006-012>014-019>023-281100-
NORTHEAST ILLINOIS

CITY           SKY/WX    TMP DP  RH WIND       PRES   REMARKS
OHARE          MOCLDY    23  19  85 CALM      30.26S
MIDWAY         PTCLDY    25  19  78 S3        30.29R
AURORA         CLOUDY    23  17  78 SE6       30.25F WCI  16
LANSING*       MOCLDY    19  17  91 CALM      30.28F
JOLIET*        CLOUDY    22  20  91 CALM      30.27F
WAUKEGAN       PTCLDY    17  14  88 CALM      30.26S
DUPAGE AIRPORT CLOUDY    22  18  85 CALM      30.25S
WHEELING       PTCLDY    22  18  85 E3        30.29R
KANKAKEE*      MOCLDY    19  17  93 E3        30.29S
MORRIS*        CLOUDY    23  20  89 SE5       30.25F WCI  17
LEWIS AIRPORT* CLOUDY    23  20  89 SE6       30.27S WCI  16
NORTHERLY IS     N/A     26  19  75 S7          N/A  WCI  19
$$

WIZ051-052-058>065-066-070>072-281100-
SOUTHEAST WISCONSIN

CITY           SKY/WX    TMP DP  RH WIND       PRES   REMARKS
MILWAUKEE      MOCLDY    23  16  74 CALM      30.26F
KENOSHA*       PTCLDY    19  16  88 CALM      30.25F
RACINE*        MOCLDY    21  16  81 CALM      30.27F
BURLINGTON     MOCLDY    19  17  91 CALM      30.25S
WAUKESHA       PTCLDY    21  18  86 CALM      30.25S
$$

INZ001>003-010>013-019-020-281100-
NORTHWEST INDIANA

CITY           SKY/WX    TMP DP  RH WIND       PRES   REMARKS
GARY*          NOT AVBL
MICHIGAN CITY* NOT AVBL
RENSSELAER*    NOT AVBL
VALPARAISO     PTCLDY    16  13  88 E3        30.29S
$$

LMZ740>746-281100-
SOUTHERN LAKE MICHIGAN

STATION/POSITION TIME  SKY/WX   TEMP WIND        PRES    VSBY
                                AIR  DIR/SP/G
                 (UTC)          (F)  (DEG/KT/KT) (MB)    (MI)
HARRISON CRIB    1000            28  130/  3/  4   N/A
BURNHAM HARBOR   1000            26  180/  6/  6   N/A
CALUMET HARBOR   1000            24  160/  5/  6   N/A
BURNS HARBOR     NOT AVBL
MICHIGAN CITY    1000            21  120/  7/  9   N/A
$$

ABBREVIATIONS USED IN REMARKS
   TC - TEMPERATURE IN CELSIUS
  WCI - WIND CHILL INDEX
   HX - HEAT INDEX
  VSB - VISIBILITY
$$



USA.gov is the U.S. government's official web portal to all federal, state and local government web resources and services.